This is the latest recevied weather packets stored in our database for station/object K0CVS. If no packets are shown the sender has not sent any weather packets the latest 10 day(s).
| Time | Temp. | Humidity | Pressure | Rain* | Wind** | Luminosity | Snow |
|---|---|---|---|---|---|---|---|
| 1788549241 | 37.22° C | 41% | 1014 hPa | 0 mm | - | 632 W/m² | - |
| 1788548938 | 36.67° C | 44% | 1014.1 hPa | 0 mm | - | 634 W/m² | - |
| 1788548638 | 37.22° C | 42% | 1014.1 hPa | 0 mm | - | 637 W/m² | - |
| 1788548334 | 36.67° C | 42% | 1014.1 hPa | 0 mm | - | 642 W/m² | - |
| 1788548030 | 37.22° C | 43% | 1014.1 hPa | 0 mm | - | 646 W/m² | - |
| 1788547729 | 37.22° C | 43% | 1014.1 hPa | 0 mm | - | 648 W/m² | - |
| 1788547424 | 36.11° C | 45% | 1014.2 hPa | 0 mm | - | 650 W/m² | - |
| 1788547120 | 36.67° C | 44% | 1014.3 hPa | 0 mm | - | 656 W/m² | - |
| 1788546814 | 36.67° C | 43% | 1014.3 hPa | 0 mm | - | 654 W/m² | - |
| 1788546511 | 36.67° C | 45% | 1014.3 hPa | 0 mm | - | 654 W/m² | - |
| 1788546211 | 36.67° C | 43% | 1014.4 hPa | 0 mm | - | 657 W/m² | - |
| 1788545906 | 36.11° C | 44% | 1014.4 hPa | 0 mm | - | 660 W/m² | - |
| 1788545606 | 35.56° C | 43% | 1014.6 hPa | 0 mm | - | 658 W/m² | - |
| 1788545301 | 35.56° C | 44% | 1014.5 hPa | 0 mm | - | 660 W/m² | - |
| 1788544997 | 35.56° C | 46% | 1014.5 hPa | 0 mm | - | 664 W/m² | - |
| 1788544695 | 35.56° C | 45% | 1014.5 hPa | 0 mm | - | 661 W/m² | - |
| 1788544395 | 35.56° C | 47% | 1014.4 hPa | 0 mm | - | 657 W/m² | - |
| 1788544095 | 35.56° C | 46% | 1014.7 hPa | 0 mm | - | 654 W/m² | - |
| 1788543791 | 35° C | 47% | 1014.9 hPa | 0 mm | - | 651 W/m² | - |
| 1788543487 | 35° C | 48% | 1014.7 hPa | 0 mm | - | 644 W/m² | - |
| 1788543182 | 34.44° C | 48% | 1014.9 hPa | 0 mm | - | 645 W/m² | - |
| 1788542878 | 33.89° C | 48% | 1015 hPa | 0 mm | - | 642 W/m² | - |
| 1788542576 | 34.44° C | 47% | 1015 hPa | 0 mm | - | 637 W/m² | - |
| 1788542272 | 34.44° C | 49% | 1015 hPa | 0 mm | - | 629 W/m² | - |
| 1788541967 | 34.44° C | 49% | 1014.9 hPa | 0 mm | - | 623 W/m² | - |
* Rain latest hour (hover to see other rain measurements)
** Current wind speed in m/s (hover to see current wind gust speed)